{"data":{"norad_id":52153,"epoch":"2026-09-20T21:50:49.730784Z","epoch_age_seconds":85406,"freshness":"FRESH","line1":"1 52153U 22032A   26263.91029781  .00000726  00000+0  67274-4 0  9995","line2":"2 52153  97.5787 298.8052 0009476 209.0921 150.9774 14.97410960244165","mean_motion":14.9741096,"eccentricity":0.0009476,"inclination_deg":97.5787,"raan_deg":298.8052,"arg_perigee_deg":209.0921,"mean_anomaly_deg":150.9774,"bstar":6.7274e-5,"rev_number":24416,"period_min":96.165985054631,"perigee_km":568.31070254021,"apogee_km":581.48809712517,"semimajor_km":6953.0363998327,"source":"CELESTRAK","updated_at":"2026-09-21T09:00:08.491353Z"}}